Saint Bonnet de Bellac- Haute Vienne - France
Donnes mto: jeudi, 05/01/2012
Date Horaire Temp. E. Hum. E. P.atmo. Pluie Vent Direction Direction Ensoleilleme Solaire P. de rose Temp au vent Rafales
05/01/2012 00:00 7,8 C 87 % 1025,0 hPa 0,0 mm 6,1 km/h (2 Bft) SO 225 0 min 0 W/m 5,8 C 6,9 C 9,7 km/h (2 Bft)
05/01/2012 00:10 7,8 C 87 % 1024,9 hPa 0,0 mm 4,7 km/h (1 Bft) SO 225 0 min 0 W/m 5,8 C 7,4 C 12,2 km/h (2 Bft)
05/01/2012 00:20 7,9 C 87 % 1024,7 hPa 0,0 mm 7,2 km/h (2 Bft) SO 225 0 min 0 W/m 5,9 C 6,7 C 13,0 km/h (3 Bft)
05/01/2012 00:30 8,0 C 87 % 1024,3 hPa 0,0 mm 14,0 km/h (3 Bft) O-SO 247 0 min 0 W/m 6,0 C 5,6 C 19,8 km/h (3 Bft)
05/01/2012 00:40 8,1 C 87 % 1023,9 hPa 0,0 mm 7,6 km/h (2 Bft) SO 225 0 min 0 W/m 6,1 C 6,9 C 7,6 km/h (2 Bft)
05/01/2012 00:50 8,1 C 87 % 1023,8 hPa 0,0 mm 9,0 km/h (2 Bft) SO 225 0 min 0 W/m 6,1 C 6,6 C 12,6 km/h (3 Bft)
05/01/2012 01:00 8,2 C 87 % 1023,6 hPa 0,0 mm 9,7 km/h (2 Bft) SO 225 0 min 0 W/m 6,2 C 6,5 C 15,5 km/h (3 Bft)
05/01/2012 01:10 8,3 C 87 % 1023,3 hPa 0,0 mm 10,4 km/h (2 Bft) SO 225 0 min 0 W/m 6,3 C 6,5 C 18,7 km/h (3 Bft)
05/01/2012 01:20 8,4 C 86 % 1022,8 hPa 0,0 mm 9,4 km/h (2 Bft) S-SO 202 0 min 0 W/m 6,2 C 6,8 C 16,6 km/h (3 Bft)
05/01/2012 01:30 8,4 C 86 % 1022,7 hPa 0,0 mm 11,2 km/h (2 Bft) SO 225 0 min 0 W/m 6,2 C 6,5 C 15,8 km/h (3 Bft)
05/01/2012 01:40 8,4 C 86 % 1022,4 hPa 0,0 mm 12,6 km/h (3 Bft) O-SO 247 0 min 0 W/m 6,2 C 6,3 C 25,2 km/h (4 Bft)
05/01/2012 01:50 8,3 C 87 % 1022,4 hPa 0,0 mm 11,5 km/h (2 Bft) S-SE 157 0 min 0 W/m 6,3 C 6,3 C 19,8 km/h (3 Bft)
05/01/2012 02:02 8,4 C 87 % 1022,3 hPa 0,0 mm 11,5 km/h (2 Bft) SO 225 0 min 0 W/m 6,4 C 6,5 C 20,5 km/h (4 Bft)
05/01/2012 02:10 8,3 C 87 % 1022,4 hPa 0,0 mm 9,4 km/h (2 Bft) SO 225 0 min 0 W/m 6,3 C 6,7 C 15,8 km/h (3 Bft)
05/01/2012 02:20 8,3 C 88 % 1022,2 hPa 0,0 mm 12,6 km/h (3 Bft) SO 225 0 min 0 W/m 6,4 C 6,2 C 15,5 km/h (3 Bft)
05/01/2012 02:30 8,4 C 88 % 1021,7 hPa 0,0 mm 11,5 km/h (2 Bft) S-SO 202 0 min 0 W/m 6,5 C 6,5 C 12,2 km/h (2 Bft)
05/01/2012 02:40 8,4 C 88 % 1021,8 hPa 0,0 mm 13,0 km/h (3 Bft) S-SE 157 0 min 0 W/m 6,5 C 6,2 C 18,7 km/h (3 Bft)
05/01/2012 02:50 8,4 C 88 % 1021,9 hPa 0,0 mm 14,0 km/h (3 Bft) NO 315 0 min 0 W/m 6,5 C 6,1 C 14,0 km/h (3 Bft)
05/01/2012 03:00 8,4 C 88 % 1021,8 hPa 0,0 mm 15,1 km/h (3 Bft) S-SO 202 0 min 0 W/m 6,5 C 5,9 C 24,1 km/h (4 Bft)
05/01/2012 03:10 8,4 C 88 % 1021,6 hPa 0,0 mm 13,3 km/h (3 Bft) O-SO 247 0 min 0 W/m 6,5 C 6,2 C 18,4 km/h (3 Bft)
05/01/2012 03:20 8,4 C 89 % 1021,7 hPa 0,0 mm 3,6 km/h (1 Bft) O-SO 247 0 min 0 W/m 6,7 C 8,4 C 4,0 km/h (1 Bft)
05/01/2012 03:30 8,5 C 89 % 1021,8 hPa 0,0 mm 5,8 km/h (2 Bft) S-SO 202 0 min 0 W/m 6,8 C 7,8 C 13,7 km/h (3 Bft)
05/01/2012 03:40 8,5 C 89 % 1021,4 hPa 0,0 mm 10,4 km/h (2 Bft) S-SO 202 0 min 0 W/m 6,8 C 6,8 C 11,2 km/h (2 Bft)
05/01/2012 03:50 8,6 C 88 % 1021,4 hPa 0,0 mm 9,0 km/h (2 Bft) O-SO 247 0 min 0 W/m 6,7 C 7,2 C 16,9 km/h (3 Bft)
05/01/2012 04:00 8,6 C 89 % 1021,4 hPa 0,0 mm 7,6 km/h (2 Bft) O-SO 247 0 min 0 W/m 6,9 C 7,5 C 13,3 km/h (3 Bft)
05/01/2012 04:10 8,5 C 89 % 1021,5 hPa 0,0 mm 8,3 km/h (2 Bft) O-SO 247 0 min 0 W/m 6,8 C 7,2 C 16,9 km/h (3 Bft)
05/01/2012 04:20 8,5 C 89 % 1021,4 hPa 0,0 mm 7,6 km/h (2 Bft) SO 225 0 min 0 W/m 6,8 C 7,3 C 8,6 km/h (2 Bft)
05/01/2012 04:30 8,6 C 90 % 1021,3 hPa 0,0 mm 7,6 km/h (2 Bft) S-SO 202 0 min 0 W/m 7,1 C 7,5 C 8,6 km/h (2 Bft)
05/01/2012 04:40 8,6 C 89 % 1020,9 hPa 0,0 mm 11,9 km/h (2 Bft) SO 225 0 min 0 W/m 6,9 C 6,6 C 15,5 km/h (3 Bft)
05/01/2012 04:50 8,7 C 89 % 1020,7 hPa 0,0 mm 9,0 km/h (2 Bft) O-SO 247 0 min 0 W/m 7,0 C 7,3 C 9,0 km/h (2 Bft)
05/01/2012 05:00 8,8 C 88 % 1019,9 hPa 0,0 mm 11,2 km/h (2 Bft) S-SO 202 0 min 0 W/m 6,9 C 7,0 C 17,6 km/h (3 Bft)
05/01/2012 05:10 8,9 C 88 % 1020,0 hPa 0,0 mm 13,0 km/h (3 Bft) SO 225 0 min 0 W/m 7,0 C 6,8 C 17,6 km/h (3 Bft)
05/01/2012 05:20 8,9 C 88 % 1019,6 hPa 0,0 mm 11,9 km/h (2 Bft) SO 225 0 min 0 W/m 7,0 C 7,0 C 22,0 km/h (4 Bft)
05/01/2012 05:30 8,9 C 88 % 1019,6 hPa 0,0 mm 6,8 km/h (2 Bft) O-SO 247 0 min 0 W/m 7,0 C 8,0 C 6,8 km/h (2 Bft)
05/01/2012 05:40 8,9 C 89 % 1019,6 hPa 0,0 mm 8,3 km/h (2 Bft) O-SO 247 0 min 0 W/m 7,2 C 7,7 C 10,8 km/h (2 Bft)
05/01/2012 05:50 8,8 C 89 % 1019,6 hPa 0,0 mm 9,7 km/h (2 Bft) SO 225 0 min 0 W/m 7,1 C 7,3 C 18,7 km/h (3 Bft)
05/01/2012 06:00 8,9 C 89 % 1019,6 hPa 0,0 mm 5,0 km/h (1 Bft) O-SO 247 0 min 0 W/m 7,2 C 8,5 C 10,4 km/h (2 Bft)
05/01/2012 06:10 8,9 C 89 % 1019,5 hPa 0,0 mm 11,9 km/h (2 Bft) SO 225 0 min 0 W/m 7,2 C 7,0 C 11,9 km/h (2 Bft)
05/01/2012 06:20 8,9 C 89 % 1019,4 hPa 0,0 mm 15,5 km/h (3 Bft) SO 225 0 min 0 W/m 7,2 C 6,5 C 25,9 km/h (4 Bft)
05/01/2012 06:30 8,9 C 89 % 1019,4 hPa 0,0 mm 10,8 km/h (2 Bft) O-SO 247 0 min 0 W/m 7,2 C 7,2 C 18,4 km/h (3 Bft)
05/01/2012 06:40 8,9 C 89 % 1019,2 hPa 0,0 mm 9,0 km/h (2 Bft) O-SO 247 0 min 0 W/m 7,2 C 7,5 C 11,2 km/h (2 Bft)
05/01/2012 06:50 8,8 C 90 % 1018,7 hPa 0,0 mm 15,5 km/h (3 Bft) SO 225 0 min 0 W/m 7,3 C 6,4 C 20,9 km/h (4 Bft)
05/01/2012 07:00 8,8 C 90 % 1018,8 hPa 0,0 mm 3,2 km/h (1 Bft) O-SO 247 0 min 0 W/m 7,3 C 8,8 C 6,1 km/h (2 Bft)
05/01/2012 07:10 8,9 C 89 % 1019,2 hPa 0,1 mm 7,2 km/h (2 Bft) O 270 0 min 0 W/m 7,2 C 7,9 C 13,7 km/h (3 Bft)
05/01/2012 07:20 9,0 C 89 % 1019,4 hPa 0,0 mm 7,9 km/h (2 Bft) S-SO 202 0 min 0 W/m 7,3 C 7,9 C 12,6 km/h (3 Bft)
05/01/2012 07:30 9,1 C 89 % 1019,4 hPa 0,0 mm 8,6 km/h (2 Bft) S-SO 202 0 min 0 W/m 7,4 C 7,8 C 15,8 km/h (3 Bft)
05/01/2012 07:40 8,9 C 89 % 1018,9 hPa 0,0 mm 9,7 km/h (2 Bft) S-SO 202 0 min 0 W/m 7,2 C 7,4 C 14,8 km/h (3 Bft)
05/01/2012 07:50 9,1 C 89 % 1018,6 hPa 0,0 mm 9,7 km/h (2 Bft) S-SO 202 0 min 0 W/m 7,4 C 7,6 C 13,3 km/h (3 Bft)
05/01/2012 08:00 9,1 C 89 % 1018,4 hPa 0,0 mm 10,8 km/h (2 Bft) SO 225 0 min 0 W/m 7,4 C 7,4 C 15,1 km/h (3 Bft)
05/01/2012 08:10 9,1 C 89 % 1018,4 hPa 0,0 mm 10,8 km/h (2 Bft) S-SO 202 0 min 0 W/m 7,4 C 7,4 C 20,5 km/h (4 Bft)
05/01/2012 08:20 9,1 C 89 % 1018,1 hPa 0,0 mm 5,4 km/h (2 Bft) S-SO 202 0 min 0 W/m 7,4 C 8,6 C 13,0 km/h (3 Bft)
05/01/2012 08:30 9,0 C 89 % 1018,1 hPa 0,0 mm 16,2 km/h (3 Bft) SO 225 0 min 0 W/m 7,3 C 6,5 C 21,2 km/h (4 Bft)
05/01/2012 08:40 9,1 C 89 % 1018,0 hPa 0,0 mm 9,0 km/h (2 Bft) SO 225 0 min 0 W/m 7,4 C 7,7 C 13,3 km/h (3 Bft)
05/01/2012 08:50 9,1 C 89 % 1018,2 hPa 0,0 mm 10,8 km/h (2 Bft) O-SO 247 0 min 0 W/m 7,4 C 7,4 C 14,0 km/h (3 Bft)
05/01/2012 09:00 9,1 C 90 % 1018,1 hPa 0,0 mm 5,0 km/h (1 Bft) O-SO 247 2 min 0 W/m 7,5 C 8,7 C 12,2 km/h (2 Bft)
05/01/2012 09:10 8,9 C 91 % 1018,0 hPa 0,0 mm 9,4 km/h (2 Bft) O-SO 247 2 min 0 W/m 7,5 C 7,4 C 13,7 km/h (3 Bft)
05/01/2012 09:20 8,8 C 92 % 1017,7 hPa 0,0 mm 9,0 km/h (2 Bft) SO 225 2 min 0 W/m 7,6 C 7,4 C 9,0 km/h (2 Bft)
05/01/2012 09:30 8,8 C 92 % 1018,0 hPa 0,0 mm 6,1 km/h (2 Bft) SO 225 2 min 0 W/m 7,6 C 8,1 C 6,5 km/h (2 Bft)
05/01/2012 09:40 8,8 C 93 % 1017,9 hPa 0,0 mm 10,1 km/h (2 Bft) SO 225 2 min 0 W/m 7,7 C 7,2 C 19,4 km/h (3 Bft)
05/01/2012 09:50 8,8 C 93 % 1017,8 hPa 0,0 mm 10,1 km/h (2 Bft) N 360 2 min 0 W/m 7,7 C 7,2 C 10,1 km/h (2 Bft)
05/01/2012 10:00 8,8 C 93 % 1017,7 hPa 0,0 mm 9,4 km/h (2 Bft) O-NO 292 2 min 0 W/m 7,7 C 7,3 C 20,5 km/h (4 Bft)
05/01/2012 10:10 8,8 C 94 % 1017,7 hPa 0,0 mm 12,2 km/h (2 Bft) O 270 2 min 0 W/m 7,9 C 6,8 C 26,3 km/h (4 Bft)
05/01/2012 10:20 8,9 C 94 % 1017,6 hPa 0,0 mm 10,1 km/h (2 Bft) SO 225 2 min 0 W/m 8,0 C 7,3 C 16,6 km/h (3 Bft)
05/01/2012 10:30 8,9 C 93 % 1017,7 hPa 0,0 mm 13,0 km/h (3 Bft) S-SO 202 2 min 0 W/m 7,8 C 6,8 C 17,3 km/h (3 Bft)
05/01/2012 10:40 8,9 C 94 % 1017,6 hPa 0,1 mm 10,1 km/h (2 Bft) SO 225 2 min 0 W/m 8,0 C 7,3 C 14,4 km/h (3 Bft)
05/01/2012 10:50 9,0 C 94 % 1017,7 hPa 0,0 mm 8,3 km/h (2 Bft) O-SO 247 2 min 0 W/m 8,1 C 7,8 C 11,9 km/h (2 Bft)
05/01/2012 11:00 9,1 C 94 % 1017,7 hPa 0,0 mm 9,4 km/h (2 Bft) SO 225 2 min 0 W/m 8,2 C 7,7 C 25,6 km/h (4 Bft)
05/01/2012 11:10 9,1 C 94 % 1017,6 hPa 0,0 mm 7,2 km/h (2 Bft) S 180 2 min 0 W/m 8,2 C 8,1 C 10,4 km/h (2 Bft)
05/01/2012 11:20 9,2 C 94 % 1017,7 hPa 0,0 mm 11,9 km/h (2 Bft) SO 225 2 min 0 W/m 8,3 C 7,4 C 38,2 km/h (6 Bft)
05/01/2012 11:30 9,3 C 94 % 1017,5 hPa 0,0 mm 18,0 km/h (3 Bft) NO 315 2 min 0 W/m 8,4 C 6,7 C 35,3 km/h (5 Bft)
05/01/2012 11:40 9,3 C 94 % 1017,2 hPa 0,0 mm 13,7 km/h (3 Bft) S-SO 202 2 min 0 W/m 8,4 C 7,2 C 14,4 km/h (3 Bft)
05/01/2012 11:50 9,4 C 94 % 1017,3 hPa 0,1 mm 10,8 km/h (2 Bft) O-SO 247 2 min 0 W/m 8,5 C 7,8 C 20,9 km/h (4 Bft)
05/01/2012 12:00 9,4 C 94 % 1017,3 hPa 0,0 mm 7,6 km/h (2 Bft) O-SO 247 2 min 0 W/m 8,5 C 8,4 C 10,4 km/h (2 Bft)
05/01/2012 12:10 9,5 C 94 % 1017,0 hPa 0,0 mm 7,2 km/h (2 Bft) O 270 2 min 0 W/m 8,6 C 8,6 C 14,0 km/h (3 Bft)
05/01/2012 12:20 9,6 C 94 % 1016,9 hPa 0,0 mm 9,4 km/h (2 Bft) O 270 2 min 0 W/m 8,7 C 8,3 C 9,4 km/h (2 Bft)
05/01/2012 12:30 9,6 C 94 % 1016,7 hPa 0,0 mm 10,8 km/h (2 Bft) SO 225 2 min 0 W/m 8,7 C 8,0 C 16,9 km/h (3 Bft)
05/01/2012 12:40 9,6 C 94 % 1016,6 hPa 0,0 mm 7,6 km/h (2 Bft) O-SO 247 2 min 0 W/m 8,7 C 8,6 C 14,4 km/h (3 Bft)
05/01/2012 12:50 9,8 C 94 % 1016,5 hPa 0,1 mm 5,8 km/h (2 Bft) O-SO 247 2 min 0 W/m 8,9 C 9,3 C 10,4 km/h (2 Bft)
05/01/2012 13:00 9,8 C 95 % 1016,3 hPa 0,1 mm 6,5 km/h (2 Bft) SO 225 2 min 0 W/m 9,0 C 9,1 C 13,7 km/h (3 Bft)
05/01/2012 13:10 9,8 C 95 % 1016,2 hPa 0,0 mm 5,8 km/h (2 Bft) O-SO 247 2 min 0 W/m 9,0 C 9,3 C 6,1 km/h (2 Bft)
05/01/2012 13:20 9,9 C 95 % 1016,1 hPa 0,1 mm 6,1 km/h (2 Bft) O-SO 247 2 min 0 W/m 9,1 C 9,3 C 19,8 km/h (3 Bft)
05/01/2012 13:30 9,9 C 95 % 1015,9 hPa 0,0 mm 6,1 km/h (2 Bft) O-SO 247 2 min 0 W/m 9,1 C 9,3 C 12,2 km/h (2 Bft)
05/01/2012 13:40 10,0 C 95 % 1015,7 hPa 0,1 mm 12,6 km/h (3 Bft) SO 225 2 min 0 W/m 9,2 C 8,2 C 29,2 km/h (5 Bft)
05/01/2012 13:50 10,1 C 95 % 1015,7 hPa 0,0 mm 9,4 km/h (2 Bft) O-SO 247 2 min 0 W/m 9,3 C 10,1 C 14,4 km/h (3 Bft)
05/01/2012 14:00 10,1 C 95 % 1015,1 hPa 0,0 mm 9,7 km/h (2 Bft) SO 225 2 min 0 W/m 9,3 C 10,1 C 15,8 km/h (3 Bft)
05/01/2012 14:10 10,2 C 95 % 1014,9 hPa 0,0 mm 3,6 km/h (1 Bft) O-SO 247 2 min 0 W/m 9,4 C 10,2 C 16,2 km/h (3 Bft)
05/01/2012 14:20 10,3 C 95 % 1014,7 hPa 0,0 mm 13,7 km/h (3 Bft) SO 225 2 min 0 W/m 9,5 C 10,3 C 19,4 km/h (3 Bft)
05/01/2012 14:30 10,3 C 95 % 1014,6 hPa 0,1 mm 7,6 km/h (2 Bft) O-SO 247 2 min 0 W/m 9,5 C 10,3 C 19,1 km/h (3 Bft)
05/01/2012 14:40 10,3 C 95 % 1014,6 hPa 0,0 mm 12,2 km/h (2 Bft) S 180 2 min 0 W/m 9,5 C 10,3 C 21,6 km/h (4 Bft)
05/01/2012 14:50 10,3 C 95 % 1014,8 hPa 0,1 mm 10,1 km/h (2 Bft) O 270 2 min 0 W/m 9,5 C 10,3 C 15,1 km/h (3 Bft)
05/01/2012 15:00 10,4 C 95 % 1014,5 hPa 0,0 mm 6,8 km/h (2 Bft) SO 225 2 min 0 W/m 9,6 C 10,4 C 12,6 km/h (3 Bft)
05/01/2012 15:10 10,4 C 95 % 1014,8 hPa 0,1 mm 11,2 km/h (2 Bft) SO 225 2 min 0 W/m 9,6 C 10,4 C 12,2 km/h (2 Bft)
05/01/2012 15:20 10,4 C 95 % 1014,8 hPa 0,1 mm 6,8 km/h (2 Bft) O 270 2 min 0 W/m 9,6 C 10,4 C 16,6 km/h (3 Bft)
05/01/2012 15:30 10,5 C 95 % 1014,6 hPa 0,0 mm 6,5 km/h (2 Bft) S-SO 202 2 min 0 W/m 9,7 C 10,5 C 6,5 km/h (2 Bft)
05/01/2012 15:40 10,5 C 95 % 1014,9 hPa 0,0 mm 11,2 km/h (2 Bft) O-SO 247 2 min 0 W/m 9,7 C 10,5 C 21,2 km/h (4 Bft)
05/01/2012 15:50 10,5 C 95 % 1014,8 hPa 0,0 mm 11,9 km/h (2 Bft) O 270 2 min 0 W/m 9,7 C 10,5 C 25,2 km/h (4 Bft)
05/01/2012 16:00 10,5 C 95 % 1015,1 hPa 0,0 mm 8,3 km/h (2 Bft) O-SO 247 2 min 0 W/m 9,7 C 10,5 C 20,9 km/h (4 Bft)
05/01/2012 16:10 10,5 C 95 % 1015,3 hPa 0,1 mm 1,4 km/h (1 Bft) O-SO 247 2 min 0 W/m 9,7 C 10,5 C 8,3 km/h (2 Bft)
05/01/2012 16:20 10,5 C 95 % 1015,4 hPa 0,1 mm 9,7 km/h (2 Bft) NO 315 2 min 0 W/m 9,7 C 10,5 C 25,2 km/h (4 Bft)
05/01/2012 16:30 10,5 C 95 % 1015,4 hPa 0,1 mm 11,2 km/h (2 Bft) NO 315 2 min 0 W/m 9,7 C 10,5 C 13,3 km/h (3 Bft)
05/01/2012 16:40 10,4 C 95 % 1015,2 hPa 0,0 mm 6,1 km/h (2 Bft) SO 225 2 min 0 W/m 9,6 C 10,4 C 14,4 km/h (3 Bft)
05/01/2012 16:50 10,4 C 95 % 1014,9 hPa 0,0 mm 16,2 km/h (3 Bft) O-SO 247 2 min 0 W/m 9,6 C 10,4 C 19,8 km/h (3 Bft)
05/01/2012 17:00 10,4 C 95 % 1014,9 hPa 0,0 mm 6,1 km/h (2 Bft) O 270 2 min 0 W/m 9,6 C 10,4 C 14,4 km/h (3 Bft)
05/01/2012 17:10 10,5 C 95 % 1015,0 hPa 0,0 mm 13,3 km/h (3 Bft) SO 225 2 min 0 W/m 9,7 C 10,5 C 13,3 km/h (3 Bft)
05/01/2012 17:20 10,4 C 94 % 1015,4 hPa 0,0 mm 10,4 km/h (2 Bft) O-NO 292 0 min 0 W/m 9,5 C 10,4 C 13,0 km/h (3 Bft)
05/01/2012 17:30 10,4 C 94 % 1015,4 hPa 0,0 mm 7,2 km/h (2 Bft) O 270 0 min 0 W/m 9,5 C 10,4 C 11,5 km/h (2 Bft)
05/01/2012 17:40 10,4 C 94 % 1015,6 hPa 0,0 mm 11,9 km/h (2 Bft) O 270 0 min 0 W/m 9,5 C 10,4 C 17,3 km/h (3 Bft)
05/01/2012 17:50 10,3 C 93 % 1015,8 hPa 0,0 mm 20,2 km/h (4 Bft) O-SO 247 0 min 0 W/m 9,2 C 10,3 C 33,1 km/h (5 Bft)
05/01/2012 18:00 10,3 C 93 % 1015,9 hPa 0,0 mm 12,2 km/h (2 Bft) O-NO 292 0 min 0 W/m 9,2 C 10,3 C 16,6 km/h (3 Bft)
05/01/2012 18:10 10,2 C 93 % 1015,9 hPa 0,0 mm 13,3 km/h (3 Bft) O-NO 292 0 min 0 W/m 9,1 C 10,2 C 29,9 km/h (5 Bft)
05/01/2012 18:20 10,2 C 93 % 1016,2 hPa 0,0 mm 6,8 km/h (2 Bft) O 270 0 min 0 W/m 9,1 C 10,2 C 9,7 km/h (2 Bft)
05/01/2012 18:30 10,2 C 93 % 1016,4 hPa 0,0 mm 3,6 km/h (1 Bft) O-NO 292 0 min 0 W/m 9,1 C 10,2 C 16,6 km/h (3 Bft)
05/01/2012 18:40 10,2 C 93 % 1016,4 hPa 0,0 mm 6,5 km/h (2 Bft) O 270 0 min 0 W/m 9,1 C 10,2 C 11,9 km/h (2 Bft)
05/01/2012 18:50 10,2 C 93 % 1016,4 hPa 0,0 mm 9,4 km/h (2 Bft) O-SO 247 0 min 0 W/m 9,1 C 10,2 C 23,8 km/h (4 Bft)
05/01/2012 19:00 10,0 C 93 % 1016,3 hPa 0,0 mm 7,2 km/h (2 Bft) O 270 0 min 0 W/m 8,9 C 9,2 C 16,9 km/h (3 Bft)
05/01/2012 19:10 9,8 C 92 % 1016,2 hPa 0,0 mm 6,5 km/h (2 Bft) O 270 0 min 0 W/m 8,6 C 9,1 C 13,7 km/h (3 Bft)
05/01/2012 19:20 9,9 C 93 % 1016,3 hPa 0,0 mm 14,8 km/h (3 Bft) O-SO 247 0 min 0 W/m 8,8 C 7,8 C 29,2 km/h (5 Bft)
05/01/2012 19:30 9,9 C 93 % 1016,5 hPa 0,0 mm 4,7 km/h (1 Bft) SO 225 0 min 0 W/m 8,8 C 9,7 C 5,8 km/h (2 Bft)
05/01/2012 19:40 9,9 C 93 % 1016,6 hPa 0,0 mm 6,1 km/h (2 Bft) S 180 0 min 0 W/m 8,8 C 9,3 C 12,6 km/h (3 Bft)
05/01/2012 19:50 9,8 C 92 % 1016,8 hPa 0,0 mm 2,9 km/h (1 Bft) O 270 0 min 0 W/m 8,6 C 9,8 C 9,4 km/h (2 Bft)
05/01/2012 20:00 9,8 C 92 % 1017,0 hPa 0,0 mm 4,3 km/h (1 Bft) O 270 0 min 0 W/m 8,6 C 9,8 C 10,8 km/h (2 Bft)
05/01/2012 20:10 9,8 C 91 % 1017,1 hPa 0,0 mm 12,2 km/h (2 Bft) O 270 0 min 0 W/m 8,4 C 8,0 C 20,2 km/h (4 Bft)
05/01/2012 20:20 9,8 C 90 % 1017,3 hPa 0,0 mm 6,1 km/h (2 Bft) O 270 0 min 0 W/m 8,2 C 9,2 C 14,8 km/h (3 Bft)
05/01/2012 20:30 9,7 C 90 % 1017,6 hPa 0,0 mm 3,6 km/h (1 Bft) NO 315 0 min 0 W/m 8,1 C 9,7 C 3,6 km/h (1 Bft)
05/01/2012 20:40 9,6 C 90 % 1017,8 hPa 0,0 mm 6,8 km/h (2 Bft) N-NO 337 0 min 0 W/m 8,0 C 8,8 C 14,4 km/h (3 Bft)
05/01/2012 20:50 9,4 C 90 % 1018,4 hPa 0,0 mm 13,7 km/h (3 Bft) N 360 0 min 0 W/m 7,8 C 7,3 C 13,7 km/h (3 Bft)
05/01/2012 21:00 9,2 C 87 % 1018,4 hPa 0,0 mm 23,4 km/h (4 Bft) NO 315 0 min 0 W/m 7,2 C 6,0 C 32,4 km/h (5 Bft)
05/01/2012 21:10 8,9 C 84 % 1018,7 hPa 0,0 mm 11,5 km/h (2 Bft) O-NO 292 0 min 0 W/m 6,3 C 7,1 C 15,1 km/h (3 Bft)
05/01/2012 21:20 8,6 C 83 % 1018,9 hPa 0,0 mm 11,9 km/h (2 Bft) NO 315 0 min 0 W/m 5,9 C 6,6 C 20,9 km/h (4 Bft)
05/01/2012 21:30 8,4 C 83 % 1019,1 hPa 0,0 mm 5,4 km/h (2 Bft) O 270 0 min 0 W/m 5,7 C 7,8 C 18,0 km/h (3 Bft)
05/01/2012 21:40 8,1 C 83 % 1019,2 hPa 0,0 mm 5,8 km/h (2 Bft) NO 315 0 min 0 W/m 5,4 C 7,3 C 9,7 km/h (2 Bft)
05/01/2012 21:50 7,9 C 83 % 1019,2 hPa 0,0 mm 7,2 km/h (2 Bft) NE 45 0 min 0 W/m 5,2 C 6,7 C 18,4 km/h (3 Bft)
05/01/2012 22:00 7,8 C 83 % 1019,1 hPa 0,0 mm 10,1 km/h (2 Bft) NO 315 0 min 0 W/m 5,1 C 6,0 C 15,5 km/h (3 Bft)
05/01/2012 22:10 7,6 C 83 % 1019,3 hPa 0,0 mm 6,8 km/h (2 Bft) O-NO 292 0 min 0 W/m 4,9 C 6,5 C 9,7 km/h (2 Bft)
05/01/2012 22:20 7,6 C 83 % 1019,3 hPa 0,0 mm 16,2 km/h (3 Bft) NO 315 0 min 0 W/m 4,9 C 4,8 C 25,9 km/h (4 Bft)
05/01/2012 22:30 7,4 C 83 % 1019,3 hPa 0,0 mm 9,0 km/h (2 Bft) E-NE 67 0 min 0 W/m 4,7 C 5,7 C 13,0 km/h (3 Bft)
05/01/2012 22:40 7,3 C 83 % 1019,5 hPa 0,0 mm 13,0 km/h (3 Bft) N-NO 337 0 min 0 W/m 4,6 C 4,9 C 19,1 km/h (3 Bft)
05/01/2012 22:50 7,1 C 84 % 1019,6 hPa 0,0 mm 16,9 km/h (3 Bft) N-NO 337 0 min 0 W/m 4,6 C 4,1 C 22,0 km/h (4 Bft)
05/01/2012 23:00 7,1 C 84 % 1019,8 hPa 0,0 mm 10,8 km/h (2 Bft) O-NO 292 0 min 0 W/m 4,6 C 5,0 C 27,4 km/h (5 Bft)
05/01/2012 23:10 7,1 C 84 % 1019,8 hPa 0,0 mm 6,5 km/h (2 Bft) N 360 0 min 0 W/m 4,6 C 6,0 C 10,4 km/h (2 Bft)
05/01/2012 23:20 6,9 C 84 % 1019,9 hPa 0,0 mm 13,3 km/h (3 Bft) NO 315 0 min 0 W/m 4,4 C 4,3 C 13,3 km/h (3 Bft)
05/01/2012 23:30 6,8 C 85 % 1020,1 hPa 0,0 mm 13,0 km/h (3 Bft) O-NO 292 0 min 0 W/m 4,5 C 4,3 C 22,7 km/h (4 Bft)
05/01/2012 23:40 6,6 C 85 % 1020,2 hPa 0,0 mm 5,4 km/h (2 Bft) NO 315 0 min 0 W/m 4,3 C 5,8 C 14,0 km/h (3 Bft)
05/01/2012 23:50 6,5 C 85 % 1020,4 hPa 0,0 mm 8,3 km/h (2 Bft) N-NO 337 0 min 0 W/m 4,2 C 4,8 C 14,4 km/h (3 Bft)
_ Min-Heure 23:50 22:40 15:00 - 16:10 - - - - 23:50 22:50 20:30
Minimum _ 6,5 C 83 % 1014,5 hPa - 1,4 km/h (1 Bft) - - - - 4,2 C 4,1 C 3,6 km/h (1 Bft)
_ Max-Heure 17:10 17:10 00:00 16:10 21:00 - - 17:10 23:50 17:10 17:10 11:20
Maximum _ 10,5 C 95 % 1025,0 hPa 0,1 mm 23,4 km/h
NO (4 Bft)
- - 2 min 0 W/m 9,7 C 10,5 C 38,2 km/h
SO (6 Bft)
Moyenne _ 9,1 C 90 % 1018,4 hPa #1,5 mm 9,6 km/h (2 Bft) SO - #1:40 h 0 W/m 7,6 C 8,0 C 16,0 km/h (3 Bft)
Saint Bonnet de Bellac- Haute Vienne - France